Lapse_Rate
6.3 6.2 6.2 6.6 6.0 5.6 5.7 6.0 6.1 5.9 5.6 5.6 5.6 5.7 5.6 5.7 5.7 5.6 5.4 4.9 4.9 5.1 4.8 4.6 5.0 5.1 5.2 5.0 5.5 5.7 5.9 5.7 5.9 5.7 5.7 5.3 5.4 5.5 5.3 5.5 5.6 5.7 5.8
6.1 6.0 6.1 6.0 5.9 6.0 6.0 5.8 5.6 5.5 5.5 5.6 5.7 5.7 5.7 5.6 5.6 5.5 5.5 5.3 5.0 5.1 5.0 4.7 4.7 5.2 5.0 5.0 5.3 5.5 5.7 5.7 5.9 5.8 5.6 5.4 5.1 5.1 5.8 5.7 5.6 5.5 5.8
6.5 6.3 6.2 6.0 5.8 5.6 5.4 5.4 5.3 5.3 5.3 5.3 5.4 5.4 5.4 5.5 5.5 5.5 5.4 5.4 5.3 5.0 4.9 4.7 4.6 4.9 4.9 4.6 5.0 5.2 5.0 4.8 4.9 5.4 5.5 5.4 5.4 5.5 5.6 6.0 5.9 5.7 5.6
6.4 6.3 6.3 6.0 5.8 5.5 5.3 5.1 5.0 5.0 5.0 5.0 5.2 5.4 5.4 5.4 5.4 5.4 5.4 5.3 5.3 5.3 5.3 5.0 5.1 5.2 5.0 5.0 5.2 5.2 5.2 4.7 4.4 4.6 5.0 5.2 5.3 5.6 5.6 5.9 6.0 5.8 5.9
6.3 6.1 5.9 5.8 5.5 5.3 5.2 5.1 5.0 4.9 4.9 4.8 4.8 4.9 4.9 5.0 5.2 5.3 5.4 5.5 5.5 5.6 5.5 5.5 5.4 5.2 5.3 5.3 5.2 5.2 5.1 5.1 4.9 4.8 4.9 5.4 5.4 5.8 5.8 5.9 6.0 5.8 5.6
6.3 6.1 5.8 5.7 5.5 5.3 5.2 5.2 5.1 5.1 5.0 4.9 4.9 4.9 5.0 5.2 5.4 5.5 5.7 5.6 5.7 5.5 5.5 5.3 5.3 5.2 5.2 5.1 5.2 5.3 5.4 5.6 5.6 5.5 5.5 5.6 6.1 6.4 6.4 6.2 6.2 5.8 5.9
6.4 6.1 5.9 5.8 5.7 5.5 5.3 5.2 5.1 5.0 5.0 4.9 5.0 5.1 5.3 5.4 5.4 5.5 5.6 5.7 5.8 5.8 5.9 5.8 5.7 5.5 5.3 5.3 5.3 5.5 5.5 5.6 5.8 5.9 6.0 6.0 6.1 6.2 6.3 6.3 6.0 6.2 6.1
6.4 6.3 6.0 5.8 5.5 5.3 5.2 5.1 5.0 5.0 5.1 5.2 5.3 5.4 5.5 5.4 5.4 5.5 5.6 5.6 5.6 5.7 5.7 5.9 6.0 6.0 6.0 6.0 5.8 5.6 5.8 5.8 5.7 5.7 5.9 6.1 6.1 6.2 6.1 6.1 6.1 6.0 6.4
6.3 6.1 5.9 5.6 5.5 5.4 5.3 5.2 5.3 5.3 5.4 5.5 5.5 5.5 5.4 5.5 5.5 5.5 5.5 5.5 5.4 5.4 5.5 5.6 5.7 5.8 5.9 6.0 6.2 6.2 6.1 5.9 5.6 5.8 5.9 5.9 5.9 6.0 5.9 6.0 6.0 5.9 6.3
6.3 6.0 5.7 5.5 5.5 5.4 5.5 5.6 5.6 5.7 5.8 5.7 5.6 5.5 5.6 5.6 5.4 5.3 5.3 5.3 5.2 5.3 5.3 5.3 5.3 5.4 5.4 5.4 5.6 5.9 6.3 6.3 6.2 5.9 5.8 5.9 6.0 6.1 6.1 5.9 6.1 6.0 6.0
6.0 6.0 5.7 5.6 5.5 5.7 5.8 5.8 5.9 5.9 5.8 5.7 5.5 5.4 5.5 5.5 5.2 5.1 5.2 5.3 5.4 5.5 5.5 5.6 5.3 5.3 5.4 5.6 5.7 5.7 5.7 6.0 6.3 6.4 6.4 6.2 6.1 6.0 6.1 6.1 6.1 6.3 6.3
6.1 5.9 5.8 5.8 5.8 5.7 5.8 5.9 5.9 5.7 5.6 5.6 5.3 5.3 5.2 5.1 5.1 5.0 5.1 5.0 5.0 5.2 5.4 5.4 5.5 5.7 5.7 5.7 5.8 5.9 5.9 6.0 6.0 6.1 6.4 6.5 6.5 6.3 6.1 6.1 6.1 6.0 6.2
5.9 5.9 5.9 5.9 5.9 5.9 5.9 5.9 5.8 5.7 5.5 5.4 5.4 5.2 5.0 4.8 4.8 4.8 4.7 4.8 5.1 5.3 5.3 5.4 5.7 5.9 5.9 5.9 5.8 5.9 6.1 6.1 6.0 6.1 5.8 6.0 6.0 6.1 6.1 6.0 6.0 6.0 6.0
5.9 5.9 5.9 6.0 6.0 6.0 5.9 5.9 5.7 5.6 5.5 5.3 5.1 4.9 4.6 4.6 4.7 4.8 4.7 4.5 4.4 4.4 4.7 4.7 5.0 5.4 5.7 5.6 5.6 5.7 5.6 5.6 5.6 5.7 5.5 5.4 5.4 5.5 5.5 5.4 5.4 5.5 5.7
6.0 6.0 6.1 6.1 6.1 6.0 6.1 5.8 5.6 5.3 5.0 4.9 4.7 4.6 4.7 4.8 4.8 4.6 4.6 4.6 4.6 4.6 4.7 4.7 4.8 5.0 5.4 5.6 5.7 5.6 5.5 5.4 5.2 5.1 5.1 5.1 5.1 5.0 5.2 5.1 5.1 5.2 5.3
6.2 6.3 6.2 6.1 6.0 5.9 5.7 5.3 5.0 4.8 4.8 4.7 4.6 4.7 4.9 4.9 4.7 4.7 4.7 4.8 4.7 4.6 4.7 4.6 4.6 4.7 4.9 5.2 5.5 5.6 5.7 5.4 5.2 5.1 4.8 4.7 4.8 4.9 4.9 5.0 4.8 4.9 5.0
6.2 6.3 6.1 6.1 5.9 5.4 5.1 4.9 4.8 4.7 4.7 4.8 4.8 4.9 4.9 4.9 4.9 4.8 4.8 4.7 4.7 4.5 4.3 4.2 4.4 4.5 4.7 4.8 4.9 5.0 5.0 5.0 4.9 4.8 4.7 4.6 4.5 4.6 4.8 4.7 4.7 4.5 4.6
6.2 6.2 6.1 5.8 5.3 5.1 4.8 4.6 4.6 4.7 4.6 4.7 4.9 5.0 5.1 5.1 5.0 5.1 5.1 4.9 4.8 4.6 4.3 4.4 4.4 4.5 4.5 4.6 4.7 4.8 4.8 4.6 4.5 4.3 4.3 4.4 4.4 4.4 4.5 4.5 4.6 4.5 4.6
6.2 6.2 5.9 5.5 5.2 4.9 4.5 4.7 4.7 4.6 4.7 4.9 5.1 5.1 5.1 5.1 5.2 5.0 4.6 4.5 4.4 4.4 4.2 4.3 4.4 4.3 4.3 4.4 4.2 4.5 4.6 4.6 4.6 4.7 4.6 4.5 4.2 4.1 4.4 4.8 4.9 4.6 4.0
6.1 5.9 5.4 5.1 4.9 4.5 4.4 4.4 4.6 4.7 4.8 5.1 5.2 5.1 5.2 5.4 5.3 5.2 4.8 4.6 4.3 4.0 3.7 3.6 3.5 3.7 3.9 3.9 4.1 4.3 4.4 4.5 4.5 4.5 4.6 4.9 4.7 4.1 3.9 4.1 4.5 4.5 4.0
5.7 5.4 5.1 4.9 4.5 4.4 4.4 4.6 4.9 5.1 5.2 5.2 5.2 5.3 5.1 5.1 4.5 4.1 4.2 4.1 3.7 3.5 3.3 3.5 3.6 3.4 3.4 3.7 4.2 4.3 4.3 4.1 4.4 4.6 4.6 4.8 4.6 4.3 4.0 3.9 4.1 4.4 4.2
5.3 5.0 4.8 4.7 4.8 4.9 5.0 5.1 5.0 5.0 5.2 5.3 5.3 5.2 5.1 4.0 4.0 3.7 3.8 3.8 3.5 3.5 3.5 3.5 3.8 3.9 3.9 4.0 4.1 4.2 4.4 4.5 4.5 4.6 4.7 4.7 4.7 4.5 4.4 4.4 4.4 4.3 4.4
4.9 4.7 4.9 5.2 5.3 5.2 5.2 5.2 5.1 5.3 5.5 5.5 5.1 4.9 4.3 3.9 3.7 3.7 3.7 3.7 3.9 3.9 3.7 3.6 3.9 4.2 4.2 4.2 4.2 4.1 4.2 4.3 4.5 4.6 4.7 4.7 4.9 5.0 5.1 4.9 4.9 4.6 4.5
5.0 5.0 5.2 5.3 5.2 5.1 5.2 5.1 5.2 5.4 5.2 5.0 4.8 4.3 4.0 3.8 3.8 3.9 4.0 4.2 4.2 4.0 4.0 4.0 4.1 4.0 4.0 3.9 3.9 3.9 3.8 3.8 4.0 4.1 4.4 4.7 4.9 5.1 5.1 5.4 5.2 5.0 4.9
4.9 5.1 5.3 5.2 5.1 5.1 5.0 5.1 5.0 4.9 5.0 5.0 4.7 4.6 4.3 4.1 4.1 4.3 4.3 4.2 4.2 4.2 4.2 4.2 4.0 3.6 3.4 3.5 3.7 3.9 3.9 3.8 3.7 4.1 4.3 4.7 5.0 5.2 5.2 5.5 5.1 5.1 5.1
5.2 5.3 5.1 5.2 5.1 5.0 5.0 4.9 4.9 5.1 5.1 4.9 4.9 4.9 4.6 4.4 4.5 4.5 4.4 4.3 4.2 4.3 4.1 3.7 4.0 4.2 4.2 4.3 4.2 4.2 4.2 4.5 4.4 4.4 4.3 4.8 5.1 5.2 5.0 5.2 5.1 5.2 5.1
Wind_Speed
11 7 7 6 5 5 6 5 5 3 4 5 4 4 3 3 2 1 1 1 3 2 2 3 5 4 4 4 3 2 1 2 3 3 1 1 2 4 6 7 9 11 11
7 9 8 6 5 6 6 5 3 5 5 5 5 4 4 3 1 2 1 4 4 3 3 5 6 4 3 4 3 3 1 1 2 4 3 2 4 3 4 4 4 9 11
7 7 7 6 6 6 6 6 5 6 6 6 5 4 5 5 5 5 4 5 5 5 4 5 4 5 5 3 3 4 2 1 2 3 3 2 2 1 3 3 3 4 8
6 7 8 7 6 6 6 7 6 6 6 6 6 6 6 6 6 6 6 6 6 6 7 6 5 4 3 4 3 4 4 4 3 3 3 3 3 3 1 3 4 2 4
7 7 6 6 6 6 7 7 7 7 6 6 6 6 5 5 4 5 5 6 5 5 6 5 7 10 13 11 4 6 6 5 5 5 5 4 2 2 3 2 3 3 4
7 6 6 6 6 6 6 6 6 6 6 6 6 5 5 3 6 7 6 6 6 5 5 5 4 8 7 10 10 10 8 5 4 3 3 6 5 3 2 3 2 2 3
7 6 5 5 6 6 5 6 6 5 4 5 4 4 3 1 4 8 10 5 5 5 4 4 3 3 4 3 5 8 8 10 8 5 5 5 7 3 5 5 3 2 4
6 6 6 5 5 5 5 5 4 3 3 3 4 5 3 2 1 5 8 5 4 2 2 2 2 4 5 5 4 5 5 6 6 5 6 8 8 6 4 5 7 7 5
7 7 6 5 5 5 4 3 2 3 2 3 1 2 3 4 5 4 5 3 2 1 3 3 3 5 10 12 6 7 8 7 9 14 17 19 21 21 16 7 6 4 7
6 7 6 5 5 3 2 2 1 1 1 1 2 3 3 0 3 7 5 2 1 3 5 6 11 10 15 15 9 8 10 11 7 6 6 8 12 11 19 11 7 7 6
7 6 5 4 4 2 2 2 2 2 3 4 4 3 5 5 5 2 7 3 2 2 4 5 6 15 16 17 17 10 12 13 13 8 7 6 6 6 7 6 7 6 5
7 6 4 3 3 2 1 2 2 3 3 4 2 5 4 5 6 7 9 6 4 1 5 5 6 15 15 18 16 19 20 17 6 5 6 7 6 6 7 6 7 6 8
6 5 3 2 1 2 3 4 2 1 3 3 2 1 1 3 3 6 5 6 6 3 4 9 16 15 15 12 17 18 17 6 6 6 7 7 7 7 6 4 6 7 6
6 4 2 0 3 3 2 2 2 3 3 3 3 2 2 1 1 2 2 3 6 5 8 7 13 16 17 15 12 9 5 5 6 7 8 8 8 5 4 4 3 4 3
5 3 3 2 1 3 3 2 2 3 4 2 2 4 3 2 3 6 5 4 4 5 7 4 4 6 6 7 6 6 6 6 6 7 8 8 8 8 6 1 2 3 4
5 3 1 1 2 3 2 3 6 6 4 8 8 5 3 6 9 10 9 10 12 10 3 4 7 7 7 8 9 9 8 10 8 7 8 8 8 7 7 7 5 5 6
4 2 0 1 2 1 2 3 4 4 6 3 3 5 9 9 10 11 12 10 14 8 3 7 8 9 10 9 9 9 10 9 10 9 9 9 8 8 8 7 8 6 6
1 2 1 1 2 2 2 4 3 2 2 3 6 8 9 11 12 13 13 5 5 4 4 7 8 9 9 9 10 9 10 10 10 9 10 9 9 8 7 7 7 6 7
0 1 1 2 2 3 3 3 3 2 3 4 3 5 8 11 12 13 12 4 5 7 7 8 9 9 8 8 9 10 11 11 11 10 11 10 8 7 7 7 7 9 10
1 5 4 2 3 4 3 3 3 4 4 5 4 6 4 1 4 4 5 4 5 7 8 8 9 9 9 10 9 9 10 11 8 9 8 10 8 8 8 8 7 7 6
1 3 5 3 4 4 4 5 5 4 5 5 6 8 11 4 8 6 6 5 6 8 9 9 9 10 10 10 10 10 10 10 10 8 8 9 8 7 6 7 7 6 7
1 2 1 3 3 4 5 5 4 5 5 5 7 7 10 5 6 7 7 6 7 9 9 9 10 10 10 10 11 11 11 10 9 7 7 8 7 7 7 6 6 6 7
2 2 3 2 4 5 4 4 4 5 5 6 6 7 8 5 6 6 8 7 8 9 10 10 10 11 11 10 10 10 11 11 9 6 7 7 8 6 6 6 6 6 6
1 3 3 3 3 4 4 5 5 6 6 6 6 7 6 7 6 8 8 8 9 10 11 11 11 15 14 13 12 11 11 10 8 8 10 9 8 7 7 6 6 7 6
3 3 2 3 4 4 4 5 5 5 6 6 6 5 5 6 6 8 8 9 10 11 14 13 12 16 19 22 21 22 19 16 14 10 6 8 9 9 7 6 5 5 7
3 4 4 3 4 3 4 5 5 5 6 7 6 6 6 6 7 8 9 10 10 12 17 13 16 24 27 22 22 20 15 13 11 13 8 7 7 7 6 6 8 5 6
Wind_Direction
93 94 79 67 72 88 87 88 82 73 85 86 94 90 72 71 114 149 295 329 306 258 129 72 84 34 44 338 325 305 98 136 179 296 271 281 305 325 325 334 326 325 324
87 95 96 97 85 70 70 76 90 77 73 88 90 72 45 48 81 269 186 347 19 76 52 55 41 29 27 288 281 252 254 267 208 235 246 264 225 263 271 295 311 318 316
90 100 93 89 89 79 69 63 64 58 49 52 73 65 47 42 45 34 62 57 59 54 48 54 33 47 37 355 324 313 320 276 225 243 280 264 276 304 319 293 283 287 294
77 70 68 70 67 66 61 56 57 52 53 55 59 63 53 52 50 49 54 51 48 47 39 49 62 81 56 323 321 349 355 331 309 304 295 260 254 295 272 272 300 284 298
83 75 72 68 65 64 59 53 50 49 46 46 73 71 68 58 63 76 80 75 70 62 45 38 54 61 61 52 38 7 5 348 336 321 307 304 273 275 255 256 270 287 288
94 90 92 83 69 58 59 57 54 44 39 45 54 74 66 62 66 64 68 81 72 77 72 45 68 58 53 52 39 26 16 7 351 320 318 303 296 275 293 273 259 290 301
109 114 109 99 89 71 58 57 50 42 51 52 58 66 80 71 73 83 84 74 83 81 74 65 66 63 51 34 4 357 341 332 314 288 275 274 299 339 333 318 308 276 262
127 128 108 110 109 89 67 54 42 35 47 40 32 17 17 313 283 109 106 106 111 104 79 59 22 338 323 323 311 303 284 274 279 281 257 264 262 272 253 251 269 278 265
137 106 97 97 97 95 81 48 34 48 41 34 358 354 334 295 285 231 145 135 127 28 360 341 319 309 307 313 298 288 296 279 262 276 283 289 289 286 281 286 267 258 281
109 104 104 113 113 109 91 32 8 56 344 320 289 263 273 279 232 178 158 114 49 354 340 332 326 317 313 315 315 305 299 294 289 280 277 280 279 271 278 268 264 253 266
111 110 108 124 148 155 57 359 328 335 342 339 333 22 25 6 347 118 114 84 57 354 317 306 309 313 309 306 304 296 283 294 299 294 291 288 278 266 262 252 242 234 242
113 122 135 135 170 139 263 298 315 339 338 307 292 29 7 356 2 98 80 73 37 318 289 288 285 292 292 296 299 290 292 298 288 276 279 282 273 258 263 261 250 239 235
125 152 170 160 195 234 264 283 293 351 320 294 35 234 267 359 33 52 39 7 342 312 269 279 294 294 289 289 287 292 298 285 280 281 276 269 267 259 258 257 266 260 251
142 144 142 219 326 314 314 319 305 298 277 234 239 187 184 249 318 333 320 313 305 308 308 303 301 302 295 284 289 288 270 260 260 270 271 277 281 253 246 235 239 261 255
123 119 89 91 36 28 52 19 287 255 216 167 153 160 172 237 238 220 228 277 283 271 295 290 294 299 290 287 282 271 270 264 268 275 277 272 280 282 281 271 264 264 233
121 106 89 47 357 79 120 59 30 24 109 147 161 158 237 232 241 250 255 263 276 283 258 269 286 281 280 289 289 292 287 283 275 272 279 279 275 273 279 284 263 251 258
127 156 158 2 358 173 149 174 156 350 28 0 235 226 213 235 253 260 267 273 282 300 260 293 290 302 298 295 291 288 286 280 274 267 265 266 266 268 267 265 280 274 263
132 278 259 233 238 228 213 182 170 185 239 273 272 250 273 272 274 273 275 297 291 283 266 285 291 293 292 291 289 288 286 285 280 272 262 256 256 256 254 254 261 276 288
207 305 338 244 234 176 149 170 195 212 234 251 293 295 263 272 278 281 283 230 267 285 289 284 281 284 284 285 288 288 285 285 279 278 266 255 247 244 244 245 249 252 262
47 345 314 261 159 151 178 195 220 235 245 249 254 253 275 335 280 280 265 259 268 280 285 282 287 286 282 284 284 284 286 286 273 281 288 272 234 235 237 239 237 248 257
110 312 289 157 168 188 204 216 227 233 241 247 250 256 244 245 277 273 280 273 267 276 279 279 284 284 282 281 278 280 285 286 286 279 290 287 241 223 219 224 231 239 253
164 319 168 186 197 221 236 232 235 250 257 261 269 273 275 260 265 273 278 273 278 278 275 275 278 280 279 276 278 278 279 280 280 272 279 287 244 224 222 218 223 232 248
209 293 187 231 228 255 272 247 258 261 264 263 269 281 284 274 268 271 275 277 284 282 280 278 277 280 281 274 268 266 268 271 266 246 257 265 267 222 217 217 221 229 238
264 171 195 241 261 258 260 258 264 266 271 274 280 280 270 273 269 277 281 283 284 284 286 286 282 279 280 277 272 266 259 256 245 232 235 239 274 223 213 217 216 225 245
159 196 221 249 262 260 273 275 277 275 280 283 285 277 278 276 279 283 284 283 284 288 293 293 291 286 280 277 271 267 263 243 234 214 218 233 244 254 206 212 207 230 249
193 210 233 252 272 292 288 289 284 282 286 290 287 284 279 282 286 289 290 292 294 298 302 300 296 289 287 289 289 282 270 249 218 211 210 219 224 253 197 189 218 232 243